Location: Mahannah Oil Field
(37.4664°N, 96.6003°W)
Time: 17:09:20
(UTC+00:00)

Vanguard 2 Rocket - Pass Details

Date: 19 June 2021
Orbit: 554 x 3325 km, 32.9° (Epoch: 24 July)

Event Time Altitude Azimuth Distance (km) Brightness Sun altitude
Rises 03:01:34 0° 253° (WSW) 7,310 12.0 -12.2°
Reaches altitude 10° 03:06:39 10° 252° (WSW) 6,235 11.5 -12.9°
Maximum altitude 03:25:54 72° 173° (S) 2,686 9.0 -15.6°
Drops below altitude 10° 03:37:58 10° 92° (E) 4,142 9.9 -17.2°
Enters shadow 03:40:09 - 90° (E) 4,707 10.2 -17.5°
